Location: Rodson Ranch
(38.7188°N, 119.3202°W)
Time: 16:58:10
(UTC+00:00)

Cosmos 1689 Rocket - Pass Details

Date: 29 October 2020
Orbit: 360 x 376 km, 97.5° (Epoch: 22 November)

Event Time Altitude Azimuth Distance (km) Brightness Sun altitude
Rises 13:16:42 0° 169° (SSE) 2,226 6.2 -13.2°
Reaches altitude 10° 13:18:38 10° 170° (S) 1,376 5.1 -12.8°
Maximum altitude 13:21:34 82° 258° (WSW) 382 1.9 -12.3°
Drops below altitude 10° 13:24:30 10° 346° (NNW) 1,378 4.6 -11.7°
Sets 13:26:27 0° 348° (NNW) 2,228 5.7 -11.3°
